EW2082 Weather Reports


Display with metric or nautical units.
time (UTC)temp
F
wind
direction
speed
MPH
gust
MPH
rain 1hr
in
rain 24hr
in
rain mn
in
humidity
%
barometer
mb
20260510082005 62 207 0.0 0.0 0.00 0.00 0.00 89 1011.4
20260510081005 62 204 0.0 0.0 0.00 0.00 0.00 89 1011.4
20260510080006 62 192 0.0 0.0 0.00 0.00 0.00 90 1011.5
20260510075004 61 278 0.0 0.0 0.00 0.00 0.00 90 1011.5
20260510074005 61 278 0.0 0.0 0.00 0.00 0.00 90 1011.6
20260510071004 61 278 0.0 0.0 0.00 0.00 0.00 91 1011.8
20260510070006 61 267 0.0 0.0 0.00 0.00 0.00 91 1011.8
20260510065004 61 267 0.0 0.0 0.00 0.00 0.00 91 1011.6
20260510064004 61 267 0.0 0.0 0.00 0.00 0.00 91 1011.8
20260510063004 61 267 0.0 0.0 0.00 0.00 0.00 92 1011.7
20260510062004 60 267 0.0 0.0 0.00 0.00 0.00 92 1011.7
20260510061004 60 267 0.0 0.0 0.00 0.00 0.00 92 1011.7
20260510060005 60 267 0.0 0.0 0.00 0.00 0.00 92 1011.8
20260510055004 60 267 0.0 0.0 0.00 0.00 0.00 92 1011.7
20260510054005 60 267 0.0 0.0 0.00 0.00 0.00 92 1011.9
20260510053004 60 300 0.0 0.0 0.00 0.00 0.00 92 1011.9
20260510052004 59 268 0.0 1.0 0.00 0.00 0.00 92 1011.7
20260510051004 60 281 0.0 3.0 0.00 0.00 0.00 92 1011.9
20260510050005 60 285 0.0 2.0 0.00 0.00 0.00 92 1011.8
20260510045004 60 271 0.0 1.0 0.00 0.00 0.00 91 1011.8
20260510044004 60 313 0.0 0.0 0.00 0.00 0.00 91 1011.8
20260510043004 60 305 0.0 1.0 0.00 0.00 0.00 91 1011.8
20260510042004 60 271 0.0 1.0 0.00 0.00 0.00 91 1011.7
20260510041004 60 297 0.0 2.0 0.00 0.00 0.00 91 1011.6
20260510040004 60 20 0.0 1.0 0.00 0.00 0.00 90 1011.5
20260510035004 60 335 0.0 1.0 0.00 0.00 0.00 90 1011.4
20260510034004 61 337 0.0 3.0 0.00 0.00 0.00 90 1011.3
20260510033004 61 349 0.0 2.0 0.00 0.00 0.00 89 1011.2
20260510032005 61 25 0.0 3.0 0.00 0.00 0.00 89 1011.0
20260510030005 62 38 0.0 3.0 0.00 0.00 0.00 88 1010.6
20260510025004 62 359 0.0 2.0 0.00 0.00 0.00 87 1010.6
20260510023005 63 358 1.0 3.0 0.00 0.00 0.00 85 1010.5
20260510022004 64 27 1.0 1.0 0.00 0.00 0.00 83 1010.4
20260510021005 64 356 1.0 4.0 0.00 0.00 0.00 82 1010.3
20260510020005 65 314 0.0 4.0 0.00 0.00 0.00 81 1010.1
20260510015004 66 302 0.0 4.0 0.00 0.00 0.00 78 1010.2
20260510014004 67 50 0.0 4.0 0.00 0.00 0.00 77 1010.1
20260510013004 67 75 1.0 3.0 0.00 0.00 0.00 76 1010.2
20260510012004 68 51 1.0 8.0 0.00 0.00 0.00 76 1010.0
20260510011004 68 287 0.0 5.0 0.00 0.00 0.00 74 1009.9
20260510010005 70 20 0.0 4.0 0.00 0.00 0.00 72 1010.0
20260510005004 70 1 0.0 6.0 0.00 0.00 0.00 72 1010.0
20260510004004 71 358 0.0 3.0 0.00 0.00 0.00 70 1010.0
20260510003004 72 59 0.0 4.0 0.00 0.00 0.00 69 1010.0
20260510002004 72 298 0.0 3.0 0.00 0.00 0.00 68 1010.0
20260510001005 72 65 0.0 7.0 0.00 0.00 0.00 68 1010.1
20260510000004 74 298 0.0 5.0 0.00 0.00 0.00 65 1010.1
20260509234004 74 276 1.0 5.0 0.00 0.00 0.00 65 1010.0
20260509233004 74 271 0.0 5.0 0.00 0.00 0.00 65 1010.1
20260509232004 74 19 3.0 5.0 0.00 0.00 0.00 63 1010.2
20260509231004 75 359 2.0 6.0 0.00 0.00 0.00 63 1010.0
20260509230004 76 304 1.0 5.0 0.00 0.00 0.00 62 1010.1
20260509225005 76 44 0.0 6.0 0.00 0.00 0.00 62 1010.1
20260509224005 76 27 0.0 2.0 0.00 0.00 0.00 63 1010.2
20260509223005 76 113 0.0 4.0 0.00 0.00 0.00 63 1010.4
20260509222005 76 280 0.0 8.0 0.00 0.00 0.00 62 1010.5
20260509221005 78 309 1.0 4.0 0.00 0.00 0.00 59 1010.8
20260509220006 78 267 0.0 6.0 0.00 0.00 0.00 61 1010.8
20260509215006 78 32 0.0 4.0 0.00 0.00 0.00 62 1010.8
20260509214006 78 187 0.0 3.0 0.00 0.00 0.00 60 1010.9
20260509213006 78 20 0.0 5.0 0.00 0.00 0.00 62 1010.9
20260509212006 78 3 1.0 3.0 0.00 0.00 0.00 61 1011.1
20260509211005 78 56 0.0 2.0 0.00 0.00 0.00 61 1011.2
20260509210006 78 340 0.0 5.0 0.00 0.00 0.00 61 1011.3
20260509202005 78 177 0.0 2.0 0.00 0.00 0.00 62 1011.7
20260509201004 78 140 0.0 0.0 0.00 0.00 0.00 62 1011.7
20260509195005 78 218 0.0 4.0 0.00 0.00 0.00 61 1011.8
20260509193005 77 155 0.0 4.0 0.00 0.00 0.00 62 1011.9
20260509192005 77 181 2.0 4.0 0.00 0.00 0.00 61 1012.0
20260509191006 77 190 0.0 4.0 0.00 0.00 0.00 63 1012.1
20260509190006 76 169 0.0 3.0 0.00 0.00 0.00 64 1012.1
20260509185005 75 213 0.0 4.0 0.00 0.00 0.00 66 1012.2
20260509184005 74 197 1.0 4.0 0.00 0.00 0.00 66 1012.2
20260509183004 74 179 2.0 5.0 0.00 0.00 0.00 67 1012.2
20260509182005 73 170 0.0 0.0 0.00 0.00 0.00 68 1012.2
20260509181005 72 167 0.0 3.0 0.00 0.00 0.00 69 1012.2
20260509180005 72 195 0.0 3.0 0.00 0.00 0.00 71 1012.3
20260509175006 71 205 0.0 3.0 0.00 0.00 0.00 72 1012.5
20260509173005 70 150 3.0 5.0 0.00 0.00 0.00 73 1012.5
20260509171004 69 193 0.0 3.0 0.00 0.00 0.00 76 1012.3
20260509165004 68 189 0.0 1.0 0.00 0.00 0.00 77 1012.1
20260509164004 67 171 0.0 1.0 0.00 0.00 0.00 79 1012.2
20260509163004 67 180 0.0 1.0 0.00 0.00 0.00 79 1012.2
20260509161004 66 186 0.0 0.0 0.00 0.00 0.00 81 1012.3
20260509160004 66 224 0.0 1.0 0.00 0.00 0.00 81 1012.3
20260509155004 65 150 0.0 0.0 0.00 0.00 0.00 82 1012.3
20260509154004 65 35 0.0 1.0 0.00 0.00 0.00 83 1012.2
20260509153004 64 15 0.0 0.0 0.00 0.00 0.00 84 1012.5
20260509151004 63 156 0.0 0.0 0.00 0.00 0.00 86 1012.4
20260509150004 63 156 0.0 0.0 0.00 0.00 0.00 86 1012.4
20260509144004 62 156 0.0 0.0 0.00 0.00 0.00 87 1012.5
20260509142003 62 156 0.0 0.0 0.00 0.00 0.00 88 1012.4
20260509140005 61 156 0.0 0.0 0.00 0.00 0.00 89 1012.2
20260509135003 61 156 0.0 0.0 0.00 0.00 0.00 89 1012.3
20260509134004 61 156 0.0 1.0 0.00 0.00 0.00 89 1012.2
20260509133004 61 156 0.0 0.0 0.00 0.00 0.00 90 1012.2
20260509131004 60 156 0.0 0.0 0.00 0.00 0.00 90 1011.8
20260509130005 60 156 0.0 0.0 0.00 0.00 0.00 90 1011.9
20260509124004 60 156 0.0 0.0 0.00 0.00 0.00 90 1011.7
20260509123004 60 156 0.0 0.0 0.00 0.00 0.00 90 1011.6
20260509122004 60 156 0.0 0.0 0.00 0.00 0.00 90 1011.7
20260509121003 60 156 0.0 0.0 0.00 0.00 0.00 90 1011.8
20260509120004 60 156 0.0 0.0 0.00 0.00 0.00 90 1011.8
20260509115003 60 156 0.0 0.0 0.00 0.00 0.00 90 1011.8
20260509114004 60 156 0.0 0.0 0.00 0.00 0.00 90 1011.8
20260509112003 60 156 0.0 0.0 0.00 0.00 0.00 90 1011.8
20260509110005 60 156 0.0 0.0 0.00 0.00 0.00 90 1011.8
20260509105004 60 156 0.0 0.0 0.00 0.00 0.00 90 1011.9
20260509104004 61 156 0.0 0.0 0.00 0.00 0.00 90 1011.9
20260509103004 61 156 0.0 0.0 0.00 0.00 0.00 90 1011.9
20260509102003 61 155 0.0 0.0 0.00 0.00 0.00 89 1011.8
20260509100005 61 155 0.0 0.0 0.00 0.00 0.00 89 1011.9
20260509095004 61 155 0.0 0.0 0.00 0.00 0.00 89 1012.0
20260509094003 61 155 0.0 0.0 0.00 0.00 0.00 89 1012.1
20260509093005 61 155 0.0 0.0 0.00 0.00 0.00 88 1012.2
20260509091004 62 142 0.0 0.0 0.00 0.00 0.00 88 1012.2
20260509090006 62 191 0.0 0.0 0.00 0.00 0.00 87 1012.4
20260509085004 62 162 0.0 0.0 0.00 0.00 0.00 87 1012.2
20260509084004 62 293 0.0 0.0 0.00 0.00 0.00 87 1012.3
20260509083003 62 293 0.0 0.0 0.00 0.00 0.00 87 1012.4